Tracking 26894 objects as of 2-Feb-2023
HD Live streaming from Space Station
objects crossing your sky now

NOAA 17 DEB

Track NOAA 17 DEB now!
10-day predictions


NORAD ID: 48763
Int'l Code: 2002-032CZ
Perigee: 657.9 km
Apogee: 765.2 km
Inclination: 99.0 °
Period: 98.9 minutes
Semi major axis: 7082 km
RCS: Unknown
Launch date: June 24, 2002
Source: United States (US)
Launch site: AIR FORCE WESTERN TEST RANGE (AFWTR)

Note: This is SATELLITE DEBRIS
Your satellite tracking list
Your tracking list is empty




NASA's NSSDC Master Catalog

Two Line Element Set (TLE):
1 48763U 02032CY  23032.26757548  .00016184  00000-0  35017-2 0  9997
2 48763  98.9649  32.0930 0075759  98.8094 262.1690 14.56529443 95208
Source of the keplerian elements: AFSPC